Weather History for KPIA - August, 2014

Change the Weather History Date:

Monday, August 4, 2014

  Actual Average Record
Temperature  
Mean Temperature 77 °F 75 °F  
Max Temperature 87 °F 85 °F 102 °F (1930)
Min Temperature 66 °F 65 °F 44 °F (1912)
Degree Days  
Heating Degree Days 0 0  
Month to date heating degree days 0 0  
Since 1 June heating degree days 2 19  
Since 1 July heating degree days 2 1  
Cooling Degree Days 12 10  
Month to date cooling degree days 40 40  
Year to date cooling degree days 722 671  
Since 1 June cooling degree days 564 590  
Growing Degree Days 26 (Base 50)    
Moisture  
Dew Point 65 °F    
Average Humidity 68    
Maximum Humidity 90    
Minimum Humidity 46    
Precipitation  
Precipitation 1.35 in 0.11 in 1.42 in (1965)
Month to date precipitation 1.99 0.44  
Year to date precipitation 25.13 22.15  
Snow  
Snow 0.00 in 0.00 in 0.00 in ()
Month to date snowfall 0.0 0.0  
Since 1 June snowfall 0.0 0.0  
Since 1 July snowfall 0.0 0.0  
Snow Depth 0.00 in    
Sea Level Pressure  
Sea Level Pressure 30.06 in    
Wind  
Wind Speed 6 mph (South)    
Max Wind Speed 22 mph    
Max Gust Speed 28 mph    
Visibility 7 miles    
Events Rain , Thunderstorm    
T = Trace of Precipitation, MM = Missing Value Source: NWS Daily Summary

Daily Weather History Graph

Daily Weather History Graph

Search for Another Location

Airport or City:

Trip Planner

Search our weather history database for the weather conditions in past years. The results will help you decide how hot, cold, wet, or windy it might be!

Date:

Astronomy

Aug. 04, 2014 Rise Set
Actual Time 5:58 AM CDT 8:10 PM CDT
Civil Twilight 5:27 AM CDT 8:40 PM CDT
Nautical Twilight 4:50 AM CDT 9:18 PM CDT
Astronomical Twilight 4:09 AM CDT 9:58 PM CDT
Moon 2:22 PM CDT (8/4) 12:05 AM CDT (8/4)
Length of Visible Light 15h 12m
Length of Day
14h 12m
First Quarter, 57% of the Moon is Illuminated
Aug 4
First Quarter
Aug 10
Full
Aug 17
Last Quarter
Aug 25
New
Sep 2
First Quarter

Hourly Weather History & Observations

Time (CDT) Temp. Heat Index Dew Point Humidity Pressure Visibility Wind Dir Wind Speed Gust Speed Precip Events Conditions
12:54 AM 69.1 °F - 64.0 °F 84% 30.10 in 8.0 mi Calm Calm - N/A   Clear
1:54 AM 68.0 °F - 63.0 °F 84% 30.09 in 7.0 mi Calm Calm - N/A   Clear
2:54 AM 68.0 °F - 63.0 °F 84% 30.09 in 8.0 mi Calm Calm - N/A   Clear
3:54 AM 66.9 °F - 62.1 °F 84% 30.09 in 8.0 mi Calm Calm - N/A   Clear
4:54 AM 66.0 °F - 62.1 °F 87% 30.10 in 7.0 mi Calm Calm - N/A   Clear
5:54 AM 66.0 °F - 62.1 °F 87% 30.10 in 7.0 mi Calm Calm - N/A   Clear
6:54 AM 68.0 °F - 62.1 °F 81% 30.10 in 6.0 mi Calm Calm - N/A   Haze
7:54 AM 71.1 °F - 63.0 °F 75% 30.11 in 7.0 mi South 5.8 mph - N/A   Clear
8:54 AM 73.9 °F - 64.0 °F 71% 30.12 in 7.0 mi South 4.6 mph - N/A   Clear
9:54 AM 78.1 °F - 64.9 °F 64% 30.11 in 8.0 mi SSW 6.9 mph - N/A   Partly Cloudy
10:54 AM 81.0 °F 82.5 °F 64.0 °F 56% 30.10 in 8.0 mi SSW 6.9 mph - N/A   Clear
11:54 AM 82.9 °F 84.4 °F 64.0 °F 53% 30.09 in 9.0 mi Variable 5.8 mph - N/A   Clear
12:54 PM 84.9 °F 86.6 °F 64.9 °F 51% 30.08 in 9.0 mi South 10.4 mph - N/A   Clear
1:54 PM 86.0 °F 87.6 °F 64.9 °F 49% 30.06 in 10.0 mi SSW 10.4 mph - N/A   Clear
2:54 PM 86.0 °F 87.6 °F 64.9 °F 49% 30.03 in 10.0 mi South 13.8 mph - N/A   Clear
3:54 PM 87.1 °F 88.9 °F 64.9 °F 48% 30.02 in 10.0 mi SSW 12.7 mph 20.7 mph N/A   Clear
4:54 PM 86.0 °F 87.6 °F 64.9 °F 49% 30.01 in 10.0 mi SSW 10.4 mph - N/A   Clear
5:54 PM 82.9 °F 85.0 °F 66.0 °F 56% 30.00 in 9.0 mi South 9.2 mph - N/A   Partly Cloudy
6:40 PM 82.9 °F 85.0 °F 66.0 °F 56% 30.02 in 9.0 mi South 6.9 mph - N/A Thunderstorm Clear
6:54 PM 82.0 °F 84.1 °F 66.0 °F 58% 30.00 in 9.0 mi South 5.8 mph - N/A   Scattered Clouds
7:02 PM 82.0 °F 84.1 °F 66.0 °F 58% 30.01 in 9.0 mi South 11.5 mph 19.6 mph N/A Thunderstorm Mostly Cloudy
7:15 PM 75.0 °F - 64.0 °F 69% 30.00 in 10.0 mi South 17.3 mph 26.5 mph N/A Thunderstorm Thunderstorm
7:45 PM 73.9 °F - 66.0 °F 76% 30.05 in 5.0 mi West 9.2 mph - 0.00 in Rain , Thunderstorm Light Rain
7:48 PM 73.4 °F - 66.2 °F 78% 30.05 in 2.5 mi WSW 6.9 mph - 0.02 in Rain , Thunderstorm Heavy Thunderstorms and Rain
7:54 PM 72.0 °F - 66.0 °F 81% 30.05 in 1.5 mi SW 3.5 mph - 0.10 in Rain , Thunderstorm Heavy Thunderstorms and Rain
8:04 PM 71.1 °F - 66.0 °F 84% 30.06 in 2.0 mi North 8.1 mph - 0.10 in Rain , Thunderstorm Heavy Thunderstorms and Rain
8:16 PM 71.1 °F - 66.0 °F 84% 30.06 in 5.0 mi NW 9.2 mph - 0.14 in Rain , Thunderstorm Thunderstorms and Rain
8:23 PM 71.1 °F - 64.9 °F 81% 30.06 in 5.0 mi Variable 5.8 mph 17.3 mph 0.15 in Rain , Thunderstorm Light Rain
8:35 PM 71.1 °F - 64.9 °F 81% 30.05 in 8.0 mi North 3.5 mph - 0.16 in Rain , Thunderstorm Light Thunderstorms and Rain
8:54 PM 71.1 °F - 66.0 °F 84% 30.04 in 5.0 mi SW 8.1 mph - 0.19 in Rain , Thunderstorm Thunderstorms and Rain
9:19 PM 71.1 °F - 64.9 °F 81% 30.04 in 10.0 mi SSE 10.4 mph - 0.09 in Rain , Thunderstorm Light Rain
9:46 PM 72.0 °F - 63.0 °F 73% 30.05 in 10.0 mi SSW 6.9 mph - 0.10 in Rain Light Rain
9:54 PM 71.1 °F - 64.0 °F 78% 30.04 in 10.0 mi South 5.8 mph - 0.10 in Rain Light Rain
10:04 PM 70.0 °F - 64.0 °F 81% 30.04 in 1.8 mi South 3.5 mph - 0.05 in Rain Heavy Rain
10:13 PM 71.1 °F - 64.0 °F 78% 30.05 in 3.0 mi SSE 5.8 mph - 0.12 in Rain Rain
10:25 PM 70.0 °F - 66.0 °F 87% 30.04 in 9.0 mi SE 4.6 mph - 0.14 in Rain , Thunderstorm Light Thunderstorms and Rain
10:46 PM 71.1 °F - 66.0 °F 84% 30.05 in 7.0 mi Calm Calm - 0.14 in Rain , Thunderstorm Light Rain
10:54 PM 71.1 °F - 66.0 °F 84% 30.04 in 5.0 mi Variable 3.5 mph - 0.15 in Rain , Thunderstorm Light Rain
11:27 PM 71.1 °F - 66.9 °F 87% 30.06 in 2.5 mi SE 5.8 mph - 0.10 in Rain , Thunderstorm Rain
11:36 PM 70.0 °F - 66.9 °F 90% 30.05 in 1.2 mi East 10.4 mph - 0.26 in Rain , Thunderstorm Heavy Rain
11:43 PM 70.0 °F - 66.0 °F 87% 30.05 in 2.0 mi ESE 9.2 mph - 0.29 in Rain , Thunderstorm Light Rain
11:46 PM 70.0 °F - 66.0 °F 87% 30.05 in 3.0 mi ESE 10.4 mph - 0.29 in Rain Light Rain
11:54 PM 70.0 °F - 66.0 °F 87% 30.05 in 5.0 mi ESE 9.2 mph - 0.29 in Rain , Thunderstorm Light Rain